Previsão horária em Aavasaksa

Hoje, 10 Abril, Sábado

Tempo Temperatura Precipitação Vento Pressão Humidade
00:00 -1°C° 1 mm 3 m/s 729 mmHg 98%
01:00 -2°C° 1 mm 4 m/s 728 mmHg 98%
02:00 -2°C° 0 mm 4 m/s 728 mmHg 97%
03:00 -1°C° 0.6 mm 3 m/s 728 mmHg 97%
04:00 -1°C° 0.6 mm 3 m/s 728 mmHg 97%
05:00 -2°C° 0.6 mm 2 m/s 728 mmHg 97%
06:00 -2°C° 0.2 mm 3 m/s 729 mmHg 95%
07:00 -2°C° 0.2 mm 3 m/s 730 mmHg 93%
08:00 -3°C° 0 mm 4 m/s 731 mmHg 90%
09:00 -3°C° 0 mm 4 m/s 732 mmHg 88%
10:00 -3°C° 0 mm 4 m/s 733 mmHg 85%
11:00 -3°C° 0 mm 4 m/s 734 mmHg 82%
12:00 -2°C° 0.2 mm 4 m/s 735 mmHg 86%
13:00 -1°C° 0.2 mm 3 m/s 736 mmHg 89%
14:00 -1°C° 0.2 mm 3 m/s 737 mmHg 93%
15:00 -1°C° 0.4 mm 3 m/s 738 mmHg 92%
16:00 -1°C° 0.4 mm 3 m/s 738 mmHg 92%
17:00 -1°C° 0.4 mm 2 m/s 739 mmHg 92%
18:00 -1°C° 0.2 mm 2 m/s 740 mmHg 93%
19:00 -2°C° 0.2 mm 2 m/s 740 mmHg 94%
20:00 -2°C° 0.2 mm 2 m/s 741 mmHg 94%
21:00 -3°C° 0 mm 2 m/s 741 mmHg 95%
22:00 -1°C° 0 mm 1 m/s 741 mmHg 96%
23:00 -2°C° 0 mm 1 m/s 742 mmHg 97%

Amanhã, 11 Abril, Domingo

Tempo Temperatura Precipitação Vento Pressão Humidade
00:00 -3°C° 0 mm 1 m/s 742 mmHg 97%
01:00 -4°C° 0 mm 1 m/s 743 mmHg 97%
02:00 -6°C° 0 mm 1 m/s 743 mmHg 96%
03:00 -6°C° 0 mm 2 m/s 743 mmHg 92%
04:00 -6°C° 0 mm 2 m/s 743 mmHg 87%
05:00 -6°C° 0 mm 2 m/s 744 mmHg 83%
06:00 -6°C° 0 mm 3 m/s 744 mmHg 82%
07:00 -4°C° 0 mm 4 m/s 744 mmHg 81%
08:00 -3°C° 0 mm 4 m/s 745 mmHg 80%
09:00 -2°C° 0 mm 4 m/s 745 mmHg 79%
10:00 0°C° 0 mm 4 m/s 746 mmHg 79%
11:00 +1°C° 0 mm 4 m/s 747 mmHg 79%
12:00 +1°C° 0.1 mm 4 m/s 748 mmHg 77%
13:00 +3°C° 0.1 mm 4 m/s 749 mmHg 74%
14:00 +3°C° 0.1 mm 4 m/s 750 mmHg 72%
15:00 +3°C° 0.1 mm 4 m/s 751 mmHg 73%
16:00 +3°C° 0.1 mm 3 m/s 752 mmHg 74%
17:00 +4°C° 0.1 mm 2 m/s 753 mmHg 76%
18:00 +2°C° 0 mm 2 m/s 753 mmHg 81%
19:00 -1°C° 0 mm 2 m/s 754 mmHg 86%
20:00 0°C° 0 mm 1 m/s 755 mmHg 91%
21:00 -1°C° 0 mm 1 m/s 756 mmHg 92%
22:00 -2°C° 0 mm 1 m/s 756 mmHg 92%
23:00 -2°C° 0 mm 1 m/s 757 mmHg 92%

Depois de amanhã, 12 Abril, Segunda-feira

Tempo Temperatura Precipitação Vento Pressão Humidade
00:00 -3°C° 0 mm 1 m/s 757 mmHg 93%
01:00 -3°C° 0 mm 1 m/s 758 mmHg 93%
02:00 -3°C° 0 mm 1 m/s 758 mmHg 94%
03:00 -4°C° 0 mm 1 m/s 758 mmHg 94%
04:00 -4°C° 0 mm 1 m/s 758 mmHg 94%
05:00 -4°C° 0 mm 1 m/s 758 mmHg 94%
06:00 -3°C° 0 mm 1 m/s 758 mmHg 87%
07:00 -1°C° 0 mm 1 m/s 759 mmHg 79%
08:00 +1°C° 0 mm 1 m/s 759 mmHg 72%
09:00 +2°C° 0 mm 1 m/s 759 mmHg 70%
10:00 +3°C° 0 mm 1 m/s 759 mmHg 67%
11:00 +3°C° 0 mm 1 m/s 759 mmHg 64%
12:00 +4°C° 0 mm 1 m/s 759 mmHg 62%
13:00 +4°C° 0 mm 1 m/s 759 mmHg 61%
14:00 +5°C° 0 mm 1 m/s 759 mmHg 59%
15:00 +4°C° 0 mm 1 m/s 759 mmHg 65%
16:00 +4°C° 0 mm 1 m/s 759 mmHg 72%
17:00 +2°C° 0 mm 0 m/s 759 mmHg 78%
18:00 +2°C° 0 mm 1 m/s 759 mmHg 81%
19:00 +1°C° 0 mm 1 m/s 760 mmHg 84%
20:00 0°C° 0 mm 1 m/s 760 mmHg 87%
21:00 0°C° 0 mm 1 m/s 760 mmHg 86%
22:00 -2°C° 0 mm 2 m/s 760 mmHg 84%
23:00 -2°C° 0 mm 2 m/s 760 mmHg 83%

13 Abril, Terça-feira

Tempo Temperatura Precipitação Vento Pressão Humidade
00:00 -2°C° 0 mm 2 m/s 760 mmHg 82%
01:00 -2°C° 0 mm 2 m/s 759 mmHg 81%
02:00 -2°C° 0 mm 3 m/s 759 mmHg 79%
03:00 -2°C° 0 mm 3 m/s 759 mmHg 77%
04:00 -2°C° 0 mm 3 m/s 759 mmHg 74%
05:00 -2°C° 0 mm 3 m/s 758 mmHg 72%
06:00 -2°C° 0 mm 3 m/s 758 mmHg 72%
07:00 -3°C° 0 mm 4 m/s 758 mmHg 73%
08:00 -3°C° 0 mm 4 m/s 757 mmHg 74%
09:00 -2°C° 0.1 mm 4 m/s 757 mmHg 76%
10:00 -2°C° 0.1 mm 4 m/s 757 mmHg 79%
11:00 -2°C° 0.1 mm 4 m/s 756 mmHg 81%
12:00 -2°C° 0.5 mm 5 m/s 756 mmHg 84%
13:00 -2°C° 0.5 mm 5 m/s 756 mmHg 87%
14:00 -4°C° 0.5 mm 5 m/s 755 mmHg 90%
15:00 -4°C° 0.8 mm 5 m/s 755 mmHg 91%
16:00 -4°C° 0.8 mm 5 m/s 755 mmHg 92%
17:00 -4°C° 0.8 mm 5 m/s 754 mmHg 94%
18:00 -4°C° 0.7 mm 5 m/s 754 mmHg 94%
19:00 -4°C° 0.7 mm 5 m/s 754 mmHg 94%
20:00 -4°C° 0.7 mm 5 m/s 753 mmHg 95%
21:00 -5°C° 0.3 mm 5 m/s 753 mmHg 94%
22:00 -4°C° 0.3 mm 4 m/s 753 mmHg 94%
23:00 -4°C° 0.3 mm 4 m/s 753 mmHg 94%

14 Abril, Quarta-feira

Tempo Temperatura Precipitação Vento Pressão Humidade
00:00 -4°C° 0.2 mm 4 m/s 752 mmHg 94%
01:00 -4°C° 0.2 mm 4 m/s 752 mmHg 94%
02:00 -4°C° 0.2 mm 4 m/s 752 mmHg 95%
03:00 -4°C° 0.3 mm 3 m/s 752 mmHg 95%
04:00 -4°C° 0.3 mm 3 m/s 751 mmHg 95%
05:00 -4°C° 0.3 mm 3 m/s 751 mmHg 96%
06:00 -4°C° 0.3 mm 3 m/s 751 mmHg 95%
07:00 -4°C° 0.3 mm 3 m/s 751 mmHg 94%
08:00 -2°C° 0.3 mm 3 m/s 751 mmHg 92%
09:00 -2°C° 0.3 mm 3 m/s 751 mmHg 92%
10:00 -1°C° 0.3 mm 3 m/s 751 mmHg 92%
11:00 -1°C° 0.3 mm 3 m/s 751 mmHg 92%
12:00 -1°C° 0.2 mm 3 m/s 751 mmHg 87%
13:00 0°C° 0.2 mm 3 m/s 751 mmHg 83%
14:00 -1°C° 0.2 mm 4 m/s 751 mmHg 79%
15:00 0°C° 0 mm 3 m/s 751 mmHg 76%
16:00 0°C° 0 mm 3 m/s 752 mmHg 74%
17:00 0°C° 0 mm 3 m/s 752 mmHg 71%
18:00 -1°C° 0 mm 2 m/s 752 mmHg 77%
19:00 0°C° 0 mm 1 m/s 753 mmHg 83%
20:00 -2°C° 0 mm 1 m/s 753 mmHg 89%
21:00 -2°C° 0 mm 1 m/s 753 mmHg 89%
22:00 -1°C° 0 mm 1 m/s 754 mmHg 90%
23:00 -1°C° 0 mm 1 m/s 754 mmHg 90%

15 Abril, Quinta-feira

Tempo Temperatura Precipitação Vento Pressão Humidade
00:00 -2°C° 0 mm 1 m/s 754 mmHg 91%
01:00 -2°C° 0 mm 1 m/s 755 mmHg 91%
02:00 -3°C° 0 mm 1 m/s 756 mmHg 92%
03:00 -3°C° 0 mm 1 m/s 756 mmHg 92%
04:00 -3°C° 0 mm 1 m/s 757 mmHg 91%
05:00 -3°C° 0 mm 1 m/s 758 mmHg 91%
06:00 -2°C° 0 mm 1 m/s 759 mmHg 86%
07:00 0°C° 0 mm 1 m/s 760 mmHg 80%
08:00 +1°C° 0 mm 1 m/s 761 mmHg 75%
09:00 +2°C° 0 mm 1 m/s 761 mmHg 72%
10:00 +3°C° 0 mm 1 m/s 762 mmHg 70%
11:00 +4°C° 0 mm 1 m/s 763 mmHg 67%
12:00 +5°C° 0 mm 1 m/s 763 mmHg 64%
13:00 +5°C° 0 mm 1 m/s 764 mmHg 60%
14:00 +5°C° 0 mm 1 m/s 764 mmHg 56%
15:00 +5°C° 0 mm 1 m/s 765 mmHg 60%
16:00 +5°C° 0 mm 1 m/s 765 mmHg 64%
17:00 +4°C° 0 mm 0 m/s 766 mmHg 69%
18:00 +2°C° 0 mm 0 m/s 766 mmHg 75%
19:00 +1°C° 0 mm 0 m/s 766 mmHg 81%
20:00 -1°C° 0 mm 0 m/s 767 mmHg 88%
21:00 -1°C° 0 mm 0 m/s 767 mmHg 88%
22:00 -1°C° 0 mm 1 m/s 767 mmHg 89%
23:00 -1°C° 0 mm 1 m/s 767 mmHg 89%
Mostrar mais